Willmar, MN

4:18 AM CDT on July 22, 2017 (GMT -0500)
Willmar

Weather History for KBDH - December, 2012

Change the Weather History Date:

Saturday, December 29, 2012

  Actual Average (KBBB) Record (KBBB)
Temperature  
Mean Temperature 2 °F -  
Max Temperature 10 °F 19 °F 60 °F (1999)
Min Temperature -7 °F 4 °F -18 °F (2013)
Degree Days  
Heating Degree Days 64    
Moisture  
Dew Point -1 °F    
Average Humidity 82    
Maximum Humidity 92    
Minimum Humidity 77    
Precipitation  
Precipitation 0.00 in - - ()
Sea Level Pressure  
Sea Level Pressure 30.08 in    
Wind  
Wind Speed 3 mph (West)    
Max Wind Speed 9 mph    
Max Gust Speed -    
Visibility 5 miles    
Events Fog , Snow    
Averages and records for this station are not official NWS values.
T = Trace of Precipitation, MM = Missing Value Source: NWS Daily Summary

Daily Weather History Graph

Daily Weather History Graph

Search for Another Location

Airport or City:

Trip Planner

Search our weather history database for the weather conditions in past years. The results will help you decide how hot, cold, wet, or windy it might be!

Date:

Astronomy

Dec. 29, 2012 Rise Set
Actual Time 7:58 AM CST 4:46 PM CST
Civil Twilight 7:25 AM CST 5:20 PM CST
Nautical Twilight 6:47 AM CST 5:57 PM CST
Astronomical Twilight 6:12 AM CST 6:33 PM CST
Moon 6:25 PM CST (12/29) 8:28 AM CST (12/29)
Length of Visible Light 9h 55m
Length of Day
8h 47m
Full, 98% of the Moon is Illuminated
Dec 29
Full
Jan 4
Last Quarter
Jan 11
New
Jan 18
First Quarter
Jan 26
Full

Hourly Weather History & Observations

Time (CST) Temp. Windchill Dew Point Humidity Pressure Visibility Wind Dir Wind Speed Gust Speed Precip Events Conditions
12:15 AM 10.4 °F 2.2 °F 6.8 °F 85% 30.05 in 0.8 mi WNW 4.6 mph - N/A Snow Light Snow
12:36 AM 8.6 °F 0.1 °F 5.0 °F 85% 30.05 in 0.8 mi West 4.6 mph - N/A Snow Light Snow
12:55 AM 8.6 °F 0.1 °F 5.0 °F 85% 30.05 in 0.5 mi WNW 4.6 mph - N/A Snow Light Snow
1:15 AM 8.6 °F 2.0 °F 6.8 °F 92% 30.05 in 0.8 mi West 3.5 mph - N/A Snow Light Snow
1:36 AM 8.6 °F 2.0 °F 5.0 °F 85% 30.05 in 0.2 mi West 3.5 mph - N/A Fog Light Freezing Fog
1:55 AM 8.6 °F - 5.0 °F 85% 30.05 in 0.5 mi Calm Calm - N/A Snow Light Snow
2:15 AM 8.6 °F 0.1 °F 5.0 °F 85% 30.05 in 0.5 mi West 4.6 mph - N/A Snow Light Snow
2:36 AM 8.6 °F - 5.0 °F 85% 30.05 in 0.5 mi Calm Calm - N/A Snow Light Snow
2:55 AM 8.6 °F - 5.0 °F 85% 30.06 in 0.2 mi Calm Calm - N/A Snow Light Snow
3:15 AM 8.6 °F - 5.0 °F 85% 30.06 in 0.5 mi Calm Calm - N/A Snow Light Snow
3:35 AM 8.6 °F - 5.0 °F 85% 30.06 in 0.5 mi Calm Calm - N/A Snow Light Snow
3:55 AM 8.6 °F 2.0 °F 6.8 °F 92% 30.06 in 0.5 mi WNW 3.5 mph - N/A Snow Light Snow
4:15 AM 10.4 °F 4.0 °F 6.8 °F 85% 30.07 in 0.5 mi WNW 3.5 mph - N/A Snow Light Snow
4:35 AM 10.4 °F - 6.8 °F 85% 30.06 in 0.5 mi Calm Calm - N/A Snow Light Snow
4:55 AM 10.4 °F - 6.8 °F 85% 30.06 in 0.5 mi Calm Calm - N/A Snow Light Snow
5:16 AM 10.4 °F - 6.8 °F 85% 30.05 in 2.0 mi Calm Calm - N/A Snow Light Snow
5:35 AM 10.4 °F - 8.6 °F 92% 30.06 in 4.0 mi Calm Calm - N/A Snow Light Snow
5:55 AM 10.4 °F - 8.6 °F 92% 30.05 in 5.0 mi Calm Calm - N/A Snow Light Snow
6:16 AM 10.4 °F 4.0 °F 6.8 °F 85% 30.06 in 5.0 mi West 3.5 mph - N/A Snow Light Snow
6:35 AM 10.4 °F - 6.8 °F 85% 30.06 in 4.0 mi Calm Calm - N/A Snow Light Snow
6:55 AM 10.4 °F - 6.8 °F 85% 30.06 in 4.0 mi Calm Calm - N/A Snow Light Snow
7:16 AM 10.4 °F 4.0 °F 6.8 °F 85% 30.06 in 5.0 mi WSW 3.5 mph - N/A Snow Light Snow
7:35 AM 6.8 °F - 1.4 °F 79% 30.06 in 5.0 mi Calm Calm - N/A   Overcast
7:55 AM 1.4 °F - -2.2 °F 85% 30.08 in 5.0 mi Calm Calm - N/A Snow Light Snow
8:16 AM 3.2 °F - -0.4 °F 85% 30.07 in 2.0 mi Calm Calm - N/A Snow Light Snow
8:35 AM 3.2 °F - -2.2 °F 78% 30.07 in 3.0 mi Calm Calm - N/A Snow Light Snow
8:55 AM -0.4 °F - -5.8 °F 78% 30.08 in 5.0 mi Calm Calm - N/A   Haze
9:16 AM -0.4 °F - -5.8 °F 78% 30.08 in 4.0 mi Calm Calm - N/A   Haze
9:35 AM 1.4 °F - -4.0 °F 78% 30.08 in 5.0 mi Calm Calm - N/A   Haze
9:55 AM 1.4 °F - -2.2 °F 85% 30.09 in 5.0 mi Calm Calm - N/A   Haze
10:16 AM 1.4 °F - -4.0 °F 78% 30.08 in 5.0 mi Calm Calm - N/A   Haze
10:35 AM 3.2 °F - -2.2 °F 78% 30.09 in 5.0 mi Calm Calm - N/A   Haze
10:55 AM 3.2 °F - -2.2 °F 78% 30.09 in 5.0 mi Calm Calm - N/A Snow Light Snow
11:16 AM 3.2 °F - -2.2 °F 78% 30.09 in 5.0 mi Calm Calm - N/A   Haze
11:35 AM 3.2 °F -4.2 °F -2.2 °F 78% 30.08 in 5.0 mi West 3.5 mph - N/A Snow Light Snow
11:55 AM 3.2 °F -4.2 °F -0.4 °F 85% 30.08 in 7.0 mi West 3.5 mph - N/A Snow Light Snow
12:16 PM 5.0 °F -2.1 °F -0.4 °F 78% 30.08 in 7.0 mi West 3.5 mph - N/A   Overcast
12:35 PM 6.8 °F -3.5 °F 1.4 °F 79% 30.07 in 5.0 mi West 5.8 mph - N/A   Overcast
12:55 PM 6.8 °F -3.5 °F 1.4 °F 79% 30.07 in 5.0 mi West 5.8 mph - N/A Snow Light Snow
1:16 PM 8.6 °F 0.1 °F 3.2 °F 79% 30.06 in 3.0 mi West 4.6 mph - N/A Snow Light Snow
1:35 PM 8.6 °F -2.6 °F 3.2 °F 79% 30.07 in 5.0 mi WNW 6.9 mph - N/A Snow Light Snow
1:55 PM 6.8 °F -4.8 °F 3.2 °F 85% 30.06 in 7.0 mi West 6.9 mph - N/A   Clear
2:16 PM 6.8 °F -5.9 °F 3.2 °F 85% 30.07 in 7.0 mi West 8.1 mph - N/A   Clear
2:35 PM 6.8 °F -5.9 °F 3.2 °F 85% 30.08 in 7.0 mi West 8.1 mph - N/A   Clear
2:55 PM 6.8 °F -6.9 °F 1.4 °F 79% 30.08 in 10.0 mi West 9.2 mph - N/A   Clear
3:16 PM 6.8 °F -4.8 °F 1.4 °F 79% 30.08 in 10.0 mi West 6.9 mph - N/A   Clear
3:35 PM 5.0 °F -4.1 °F 1.4 °F 85% 30.08 in 7.0 mi West 4.6 mph - N/A   Clear
3:55 PM 5.0 °F -4.1 °F 1.4 °F 85% 30.09 in 7.0 mi West 4.6 mph - N/A   Clear
4:16 PM 3.2 °F -4.2 °F -0.4 °F 85% 30.08 in 7.0 mi West 3.5 mph - N/A   Clear
4:35 PM 3.2 °F -6.2 °F -0.4 °F 85% 30.09 in 7.0 mi WSW 4.6 mph - N/A   Clear
4:55 PM 1.4 °F -6.2 °F -2.2 °F 85% 30.10 in 7.0 mi West 3.5 mph - N/A   Clear
5:14 PM -0.4 °F -10.4 °F -5.8 °F 78% 30.10 in 7.0 mi West 4.6 mph - N/A   Clear
5:35 PM -0.4 °F -10.4 °F -5.8 °F 78% 30.11 in 7.0 mi West 4.6 mph - N/A   Clear
5:55 PM -2.2 °F -14.2 °F -7.6 °F 78% 30.11 in 7.0 mi West 5.8 mph - N/A   Clear
6:15 PM 1.4 °F -8.3 °F -4.0 °F 78% 30.11 in 7.0 mi WSW 4.6 mph - N/A   Clear
6:35 PM -0.4 °F -8.3 °F -5.8 °F 78% 30.12 in 7.0 mi WSW 3.5 mph - N/A   Clear
6:55 PM -0.4 °F - -5.8 °F 78% 30.11 in 7.0 mi Calm Calm - N/A   Clear
7:15 PM -2.2 °F - -7.6 °F 78% 30.10 in 7.0 mi Calm Calm - N/A   Clear
7:35 PM -0.4 °F -8.3 °F -5.8 °F 78% 30.12 in 5.0 mi SW 3.5 mph - N/A   Haze
7:55 PM -0.4 °F - -5.8 °F 78% 30.12 in 3.0 mi Calm Calm - N/A   Haze
8:15 PM -2.2 °F - -7.6 °F 78% 30.11 in 5.0 mi Calm Calm - N/A   Haze
8:35 PM -4.0 °F - -9.4 °F 78% 30.11 in 5.0 mi Calm Calm - N/A   Haze
8:55 PM -2.2 °F - -7.6 °F 78% 30.12 in 5.0 mi Calm Calm - N/A   Haze
9:15 PM -4.0 °F - -9.4 °F 78% 30.12 in 7.0 mi Calm Calm - N/A   Clear
9:35 PM -5.8 °F -14.5 °F -11.2 °F 77% 30.14 in 4.0 mi WSW 3.5 mph - N/A   Haze
9:55 PM -4.0 °F - -9.4 °F 78% 30.14 in 5.0 mi Calm Calm - N/A   Haze
10:15 PM -7.6 °F - -11.2 °F 84% 30.13 in 5.0 mi Calm Calm - N/A   Haze
10:35 PM -5.8 °F - -11.2 °F 77% 30.14 in 7.0 mi Calm Calm - N/A   Clear
10:55 PM -4.0 °F - -9.4 °F 78% 30.14 in 5.0 mi Calm Calm - N/A   Haze
11:15 PM -7.6 °F - -13.0 °F 77% 30.13 in 7.0 mi Calm Calm - N/A   Clear
11:35 PM -7.6 °F - -13.0 °F 77% 30.13 in 7.0 mi Calm Calm - N/A   Clear
11:55 PM -7.6 °F - -13.0 °F 77% 30.13 in 7.0 mi Calm Calm - N/A   Clear